ORBCOMM FM06

Last updated on Sat Aug 15 2026 00:03:10 GMT+0000 (Coordinated Universal Time)

1 25118U 97084G 26226.47751073 .00000568 00000+0 19158-3 0 9992 2 25118 45.0132 132.0707 0001040 326.5535 202.9671 14.47682229502838
UTC large
Height (km)
Speed (km/s)
/
Latitude / Longitude
Inclination (degrees)
Orbital Period (minutes)
Azimuth
Elevation
Range (km)
Doppler Factor

Next 0 passes for location: London (51.5072 / 0.1276)

No passes found over London.
ORBCOMM FM06